Location: Rumah Sambob
(2.9167°N, 113.9167°E)
Time: 18:57:45
(UTC+00:00)

Cosmos 1862 - Pass Details

Date: 06 June 2020
Orbit: 538 x 556 km, 82.5° (Epoch: 11 July)

Event Time Altitude Azimuth Distance (km) Brightness Sun altitude
Exits shadow 20:29:51 70° 59° (ENE) 585 3.5 -24.7°
Drops below altitude 10° 20:33:35 10° 9° (N) 1,811 6.4 -23.8°
Sets 20:35:44 0° 7° (N) 2,698 7.3 -23.4°
